Tracking 21082 objects as of 6-Aug-2020
HD Live streaming from Space Station
objects crossing your sky now

GALILEO 20 (2C6)

Track GALILEO 20 (2C6) now!
GALILEO 20 (2C6) is classified as:


NORAD ID: 43056
Int'l Code: 2017-079B
Perigee: 23,213.6 km
Apogee: 23,245.0 km
Inclination: 56.2 °
Period: 844.7 minutes
Semi major axis: 29600 km
RCS: Unknown
Launch date: December 12, 2017
Source: European Space Agency (ESA)
Launch site: FRENCH GUIANA (FRGUI)
aabbcc
Your satellite tracking list
Your tracking list is empty




NASA's NSSDC Master Catalog

Two Line Element Set (TLE):
1 43056U 17079B   20216.93123164 -.00000007 +00000-0 +00000-0 0  9990
2 43056 056.2314 280.4952 0005298 257.7008 102.3302 01.70474512016463
Source of the keplerian elements: AFSPC